Flag for Germany Weather past 2 weeks in Neunkirchen (Saar), Saarland, Germany

Now
32 °F

Light snow. Ice fog.


Feels Like: 27 °F
Forecast: 32 / 37 °F
Wind: 5 mph from Southwest

Location: Saarbruecken / Ensheim

Current Time: Jan 26, 2015 at 4:08:55 AM

Latest Report: Jan 26, 2015 at 3:20 AM


Visibility: 1 mi

Pressure: 30.33 "Hg

Humidity: 100%

Dew point: 32 °F

Location of Neunkirchen (Saar)Location

Historic Weather in Neunkirchen (Saar) — Graph

°F

Neunkirchen (Saar) temperature yesterday

Maximum temperature yesterday: 32 °F (at 1:50 PM)
Minimum temperature yesterday: 23 °F (at 3:50 AM)
Average temperature yesterday: 29 °F

Past Weeks' High & Low Weather Summary

 TemperatureHumidityPressure
High52 °F (Jan 13, 1:20 PM)100% (Jan 16, 10:50 AM)30.42 "Hg (Jan 16, 10:50 AM)
Low23 °F (Jan 25, 3:50 AM)40% (Jan 13, 12:20 PM)29.65 "Hg (Jan 15, 2:50 PM)
Average35 °F87%29.99 "Hg
* Reported Jan 11 2:20 AM — Jan 26 2:50 AM, Neunkirchen (Saar), Weather by CustomWeather, © 2014

Note: Actual official high and low records may vary slightly from our data, if they occured in-between our weather recording intervals... More about our weather records

Advertising

Neunkirchen (Saar) weather history for previous 24 hours

 ConditionsComfort  
Time TempWeatherWind HumidityBarometerVisibility
2:50 AM
Jan 26
32 °FLight snow. Ice fog.3 mph100%30.33 "Hg2 mi
2:20 AM32 °FLight snow. Ice fog.3 mph100%30.33 "Hg1 mi
1:50 AM32 °FLight snow. Ice fog.3 mph100%30.33 "Hg1 mi
1:20 AM32 °FLight snow. Ice fog.3 mph100%30.36 "Hg1 mi
12:50 AM32 °FLight snow. Ice fog.5 mph100%30.36 "Hg1 mi
12:20 AM32 °FLight snow. Ice fog.5 mph100%30.36 "Hg1 mi
11:50 PM
Jan 25
32 °FLight snow. Ice fog.3 mph100%30.36 "Hg1 mi
11:20 PM32 °FLight snow. Ice fog.5 mph100%30.36 "Hg1 mi
10:20 PM32 °FLight snow. Ice fog.3 mph100%30.39 "Hg1 mi
9:50 PM32 °FLight snow. Ice fog.3 mph100%30.39 "Hg1 mi
9:20 PM32 °FLight snow. Ice fog.3 mph100%30.39 "Hg1 mi
8:50 PM32 °FLight snow. Ice fog.5 mph100%30.39 "Hg1 mi
8:20 PM32 °FLight snow. Ice fog.5 mph100%30.39 "Hg1 mi
7:50 PM32 °FLight snow. Ice fog.5 mph100%30.39 "Hg1 mi
7:20 PM32 °FLight snow. Ice fog.3 mph100%30.42 "Hg1 mi
6:50 PM32 °FLight snow. Ice fog.5 mph93%30.39 "Hg1 mi
6:20 PM32 °FLight snow. Ice fog.5 mph100%30.39 "Hg1 mi
5:50 PM32 °FLight snow. Ice fog.3 mph100%30.39 "Hg1 mi
5:20 PM32 °FLight snow. Ice fog.5 mph100%30.39 "Hg1 mi
4:50 PM32 °FLight snow. Ice fog.5 mph100%30.39 "Hg1 mi
4:20 PM32 °FLight snow. Ice fog.2 mph100%30.39 "Hg1 mi
3:50 PM32 °FLight snow. Ice fog.3 mph100%30.39 "Hg2 mi
3:20 PM32 °FLight snow. Ice fog.3 mph100%30.39 "Hg2 mi
2:50 PM32 °FIce fog.3 mph100%30.39 "Hg2 mi
2:20 PM32 °FIce fog.5 mph100%30.39 "Hg2 mi
1:50 PM32 °FIce fog.1 mph93%30.39 "Hg1 mi
1:20 PM30 °FIce fog.3 mph100%30.39 "Hg1 mi
12:50 PM30 °FIce fog.2 mph100%30.42 "Hg1 mi
12:20 PM30 °FIce fog.No wind100%30.42 "Hg2 mi
11:50 AM30 °FIce fog.2 mph93%30.42 "Hg2 mi
11:20 AM28 °FIce fog.2 mph100%30.42 "Hg2 mi
10:50 AM28 °FIce fog.1 mph100%30.42 "Hg2 mi
10:20 AM28 °FIce fog.No wind93%30.42 "Hg2 mi
9:50 AM27 °FIce fog.2 mph100%30.42 "Hg2 mi
9:20 AM27 °FIce fog.No wind100%30.42 "Hg1 mi
8:50 AM27 °FIce fog.2 mph93%30.42 "Hg1 mi
8:20 AM25 °FIce fog.2 mph100%30.39 "Hg1 mi
7:50 AM25 °FIce fog.2 mph100%30.39 "Hg1 mi
7:20 AM25 °FIce fog.2 mph100%30.39 "Hg1 mi
6:50 AM25 °FIce fog.3 mph100%30.39 "Hg1 mi
6:20 AM25 °FIce fog.5 mph93%30.36 "Hg1 mi
5:50 AM25 °FIce fog.2 mph93%30.36 "Hg0 mi
5:20 AM25 °FIce fog.3 mph100%30.36 "Hg2 mi
4:20 AM25 °FIce fog.7 mph100%30.33 "Hg2 mi
Weather by CustomWeather, © 2014

See weather overviewHow to use our weather pages